Data start date =,8/9/2022
Data end date/time =,5/4/2024 12:00
""
""
Date/Time,MissHW_Pokegama
,Flow-Out
UTC,cfs
,Ave
8/9/2022 12:00,110
8/10/2022 12:00,0
8/11/2022 12:00,0
8/12/2022 12:00,0
8/13/2022 12:00,0
8/14/2022 12:00,0
8/15/2022 12:00,0
8/16/2022 12:00,1180
8/17/2022 12:00,2720
8/18/2022 12:00,2720
8/19/2022 12:00,2390
8/20/2022 12:00,2240
8/21/2022 12:00,2230
8/22/2022 12:00,2220
8/23/2022 12:00,2250
8/24/2022 12:00,2280
8/25/2022 12:00,2280
8/26/2022 12:00,2280
8/27/2022 12:00,2280
8/28/2022 12:00,2290
8/29/2022 12:00,2300
8/30/2022 12:00,2300
8/31/2022 12:00,2290
9/1/2022 12:00,2290
9/2/2022 12:00,2290
9/3/2022 12:00,2290
9/4/2022 12:00,2280
9/5/2022 12:00,2280
9/6/2022 12:00,2280
9/7/2022 12:00,2300
9/8/2022 12:00,2300
9/9/2022 12:00,2300
9/10/2022 12:00,2300
9/11/2022 12:00,2300
9/12/2022 12:00,2300
9/13/2022 12:00,2300
9/14/2022 12:00,2070
9/15/2022 12:00,1240
9/16/2022 12:00,1250
9/17/2022 12:00,1250
9/18/2022 12:00,1250
9/19/2022 12:00,1250
9/20/2022 12:00,1250
9/21/2022 12:00,1250
9/22/2022 12:00,1250
9/23/2022 12:00,1250
9/24/2022 12:00,1250
9/25/2022 12:00,1250
9/26/2022 12:00,1240
9/27/2022 12:00,1240
9/28/2022 12:00,1130
9/29/2022 12:00,994
9/30/2022 12:00,994
10/1/2022 12:00,994
10/2/2022 12:00,995
10/3/2022 12:00,995
10/4/2022 12:00,995
10/5/2022 12:00,994
10/6/2022 12:00,993
10/7/2022 12:00,993
10/8/2022 12:00,992
10/9/2022 12:00,991
10/10/2022 12:00,991
10/11/2022 12:00,991
10/12/2022 12:00,989
10/13/2022 12:00,988
10/14/2022 12:00,990
10/15/2022 12:00,990
10/16/2022 12:00,990
10/17/2022 12:00,985
10/18/2022 12:00,1210
10/19/2022 12:00,1480
10/20/2022 12:00,1470
10/21/2022 12:00,1460
10/22/2022 12:00,1460
10/23/2022 12:00,1450
10/24/2022 12:00,1450
10/25/2022 12:00,1450
10/26/2022 12:00,1450
10/27/2022 12:00,1230
10/28/2022 12:00,957
10/29/2022 12:00,959
10/30/2022 12:00,962
10/31/2022 12:00,965
11/1/2022 12:00,968
11/2/2022 12:00,972
11/3/2022 12:00,975
11/4/2022 12:00,1180
11/5/2022 12:00,1540
11/6/2022 12:00,1540
11/7/2022 12:00,1530
11/8/2022 12:00,1430
11/9/2022 12:00,1250
11/10/2022 12:00,1250
11/11/2022 12:00,1260
11/12/2022 12:00,1260
11/13/2022 12:00,1250
11/14/2022 12:00,1250
11/15/2022 12:00,1250
11/16/2022 12:00,1240
11/17/2022 12:00,1240
11/18/2022 12:00,1230
11/19/2022 12:00,1210
11/20/2022 12:00,1190
11/21/2022 12:00,1200
11/22/2022 12:00,1110
11/23/2022 12:00,943
11/24/2022 12:00,913
11/25/2022 12:00,912
11/26/2022 12:00,912
11/27/2022 12:00,910
11/28/2022 12:00,910
11/29/2022 12:00,909
11/30/2022 12:00,903
12/1/2022 12:00,857
12/2/2022 12:00,762
12/3/2022 12:00,762
12/4/2022 12:00,763
12/5/2022 12:00,763
12/6/2022 12:00,763
12/7/2022 12:00,763
12/8/2022 12:00,763
12/9/2022 12:00,763
12/10/2022 12:00,763
12/11/2022 12:00,763
12/12/2022 12:00,764
12/13/2022 12:00,764
12/14/2022 12:00,765
12/15/2022 12:00,768
12/16/2022 12:00,770
12/17/2022 12:00,771
12/18/2022 12:00,771
12/19/2022 12:00,771
12/20/2022 12:00,771
12/21/2022 12:00,771
12/22/2022 12:00,770
12/23/2022 12:00,845
12/24/2022 12:00,963
12/25/2022 12:00,963
12/26/2022 12:00,962
12/27/2022 12:00,962
12/28/2022 12:00,961
12/29/2022 12:00,957
12/30/2022 12:00,957
12/31/2022 12:00,957
1/1/2023 12:00,957
1/2/2023 12:00,956
1/3/2023 12:00,956
1/4/2023 12:00,956
1/5/2023 12:00,956
1/6/2023 12:00,956
1/7/2023 12:00,953
1/8/2023 12:00,953
1/9/2023 12:00,954
1/10/2023 12:00,953
1/11/2023 12:00,953
1/12/2023 12:00,952
1/13/2023 12:00,951
1/14/2023 12:00,952
1/15/2023 12:00,952
1/16/2023 12:00,952
1/17/2023 12:00,952
1/18/2023 12:00,953
1/19/2023 12:00,952
1/20/2023 12:00,1030
1/21/2023 12:00,1280
1/22/2023 12:00,1260
1/23/2023 12:00,1250
1/24/2023 12:00,1250
1/25/2023 12:00,1240
1/26/2023 12:00,1230
1/27/2023 12:00,1220
1/28/2023 12:00,1210
1/29/2023 12:00,1190
1/30/2023 12:00,1180
1/31/2023 12:00,1160
2/1/2023 12:00,1140
2/2/2023 12:00,1130
2/3/2023 12:00,1110
2/4/2023 12:00,1110
2/5/2023 12:00,1120
2/6/2023 12:00,1130
2/7/2023 12:00,1130
2/8/2023 12:00,1140
2/9/2023 12:00,1140
2/10/2023 12:00,1110
2/11/2023 12:00,1110
2/12/2023 12:00,1110
2/13/2023 12:00,1110
2/14/2023 12:00,1110
2/15/2023 12:00,1110
2/16/2023 12:00,1110
2/17/2023 12:00,1110
2/18/2023 12:00,1130
2/19/2023 12:00,1130
2/20/2023 12:00,1110
2/21/2023 12:00,1130
2/22/2023 12:00,1140
2/23/2023 12:00,1170
2/24/2023 12:00,1170
2/25/2023 12:00,1170
2/26/2023 12:00,1180
2/27/2023 12:00,1170
2/28/2023 12:00,1180
3/1/2023 12:00,1190
3/2/2023 12:00,1190
3/3/2023 12:00,1220
3/4/2023 12:00,1380
3/5/2023 12:00,1370
3/6/2023 12:00,1370
3/7/2023 12:00,1370
3/8/2023 12:00,1370
3/9/2023 12:00,1370
3/10/2023 12:00,1370
3/11/2023 12:00,1370
3/12/2023 12:00,1370
3/13/2023 12:00,1370
3/14/2023 12:00,1280
3/15/2023 12:00,1040
3/16/2023 12:00,1040
3/17/2023 12:00,1060
3/18/2023 12:00,1020
3/19/2023 12:00,1050
3/20/2023 12:00,1020
3/21/2023 12:00,1030
3/22/2023 12:00,1030
3/23/2023 12:00,1030
3/24/2023 12:00,1040
3/25/2023 12:00,1070
3/26/2023 12:00,1060
3/27/2023 12:00,1090
3/28/2023 12:00,1140
3/29/2023 12:00,1170
3/30/2023 12:00,1090
3/31/2023 12:00,1020
4/1/2023 12:00,1110
4/2/2023 12:00,1150
4/3/2023 12:00,1150
4/4/2023 12:00,1220
4/5/2023 12:00,1220
4/6/2023 12:00,1230
4/7/2023 12:00,1590
4/8/2023 12:00,1560
4/9/2023 12:00,1670
4/10/2023 12:00,1750
4/11/2023 12:00,1820
4/12/2023 12:00,1900
4/13/2023 12:00,1980
4/14/2023 12:00,1760
4/15/2023 12:00,1380
4/16/2023 12:00,1430
4/17/2023 12:00,1460
4/18/2023 12:00,1490
4/19/2023 12:00,1350
4/20/2023 12:00,623
4/21/2023 12:00,636
4/22/2023 12:00,646
4/23/2023 12:00,655
4/24/2023 12:00,663
4/25/2023 12:00,698
4/26/2023 12:00,1040
4/27/2023 12:00,1420
4/28/2023 12:00,1880
4/29/2023 12:00,2270
4/30/2023 12:00,2260
5/1/2023 12:00,2260
5/2/2023 12:00,2250
5/3/2023 12:00,2240
5/4/2023 12:00,2230
5/5/2023 12:00,2220
5/6/2023 12:00,2210
5/7/2023 12:00,2210
5/8/2023 12:00,2210
5/9/2023 12:00,2250
5/10/2023 12:00,2400
5/11/2023 12:00,2460
5/12/2023 12:00,2610
5/13/2023 12:00,2750
5/14/2023 12:00,2760
5/15/2023 12:00,2940
5/16/2023 12:00,3460
5/17/2023 12:00,3640
5/18/2023 12:00,3500
5/19/2023 12:00,2970
5/20/2023 12:00,2700
5/21/2023 12:00,2490
5/22/2023 12:00,2100
5/23/2023 12:00,1430
5/24/2023 12:00,1170
5/25/2023 12:00,1180
5/26/2023 12:00,1180
5/27/2023 12:00,1190
5/28/2023 12:00,1190
5/29/2023 12:00,1190
5/30/2023 12:00,1190
5/31/2023 12:00,1280
6/1/2023 12:00,1450
6/2/2023 12:00,1440
6/3/2023 12:00,1440
6/4/2023 12:00,1430
6/5/2023 12:00,1430
6/6/2023 12:00,1360
6/7/2023 12:00,1260
6/8/2023 12:00,1260
6/9/2023 12:00,1260
6/10/2023 12:00,1270
6/11/2023 12:00,1270
6/12/2023 12:00,1270
6/13/2023 12:00,1280
6/14/2023 12:00,1180
6/15/2023 12:00,915
6/16/2023 12:00,915
6/17/2023 12:00,915
6/18/2023 12:00,915
6/19/2023 12:00,915
6/20/2023 12:00,915
6/21/2023 12:00,914
6/22/2023 12:00,913
6/23/2023 12:00,911
6/24/2023 12:00,911
6/25/2023 12:00,911
6/26/2023 12:00,911
6/27/2023 12:00,911
6/28/2023 12:00,912
6/29/2023 12:00,913
6/30/2023 12:00,911
7/1/2023 12:00,910
7/2/2023 12:00,910
7/3/2023 12:00,910
7/4/2023 12:00,908
7/5/2023 12:00,908
7/6/2023 12:00,848
7/7/2023 12:00,724
7/8/2023 12:00,727
7/9/2023 12:00,728
7/10/2023 12:00,729
7/11/2023 12:00,729
7/12/2023 12:00,730
7/13/2023 12:00,732
7/14/2023 12:00,732
7/15/2023 12:00,732
7/16/2023 12:00,733
7/17/2023 12:00,732
7/18/2023 12:00,732
7/19/2023 12:00,733
7/20/2023 12:00,733
7/21/2023 12:00,733
7/22/2023 12:00,733
7/23/2023 12:00,734
7/24/2023 12:00,733
7/25/2023 12:00,732
7/26/2023 12:00,731
7/27/2023 12:00,640
7/28/2023 12:00,483
7/29/2023 12:00,483
7/30/2023 12:00,483
7/31/2023 12:00,483
8/1/2023 12:00,483
8/2/2023 12:00,483
8/3/2023 12:00,483
8/4/2023 12:00,482
8/5/2023 12:00,482
8/6/2023 12:00,481
8/7/2023 12:00,444
8/8/2023 12:00,385
8/9/2023 12:00,385
8/10/2023 12:00,385
8/11/2023 12:00,386
8/12/2023 12:00,386
8/13/2023 12:00,386
8/14/2023 12:00,386
8/15/2023 12:00,385
8/16/2023 12:00,385
8/17/2023 12:00,384
8/18/2023 12:00,384
8/19/2023 12:00,383
8/20/2023 12:00,382
8/21/2023 12:00,371
8/22/2023 12:00,321
8/23/2023 12:00,287
8/24/2023 12:00,287
8/25/2023 12:00,287
8/26/2023 12:00,287
8/27/2023 12:00,287
8/28/2023 12:00,288
8/29/2023 12:00,287
8/30/2023 12:00,287
8/31/2023 12:00,288
9/1/2023 12:00,287
9/2/2023 12:00,287
9/3/2023 12:00,287
9/4/2023 12:00,287
9/5/2023 12:00,287
9/6/2023 12:00,288
9/7/2023 12:00,288
9/8/2023 12:00,288
9/9/2023 12:00,288
9/10/2023 12:00,288
9/11/2023 12:00,288
9/12/2023 12:00,289
9/13/2023 12:00,289
9/14/2023 12:00,289
9/15/2023 12:00,289
9/16/2023 12:00,289
9/17/2023 12:00,289
9/18/2023 12:00,290
9/19/2023 12:00,290
9/20/2023 12:00,290
9/21/2023 12:00,290
9/22/2023 12:00,306
9/23/2023 12:00,338
9/24/2023 12:00,340
9/25/2023 12:00,361
9/26/2023 12:00,404
9/27/2023 12:00,493
9/28/2023 12:00,582
9/29/2023 12:00,580
9/30/2023 12:00,577
10/1/2023 12:00,575
10/2/2023 12:00,639
10/3/2023 12:00,726
10/4/2023 12:00,724
10/5/2023 12:00,721
10/6/2023 12:00,717
10/7/2023 12:00,714
10/8/2023 12:00,712
10/9/2023 12:00,709
10/10/2023 12:00,705
10/11/2023 12:00,702
10/12/2023 12:00,699
10/13/2023 12:00,696
10/14/2023 12:00,694
10/15/2023 12:00,692
10/16/2023 12:00,668
10/17/2023 12:00,639
10/18/2023 12:00,637
10/19/2023 12:00,637
10/20/2023 12:00,635
10/21/2023 12:00,633
10/22/2023 12:00,631
10/23/2023 12:00,594
10/24/2023 12:00,494
10/25/2023 12:00,494
10/26/2023 12:00,494
10/27/2023 12:00,495
10/28/2023 12:00,495
10/29/2023 12:00,495
10/30/2023 12:00,495
10/31/2023 12:00,495
11/1/2023 12:00,495
11/2/2023 12:00,495
11/3/2023 12:00,495
11/4/2023 12:00,495
11/5/2023 12:00,495
11/6/2023 12:00,496
11/7/2023 12:00,496
11/8/2023 12:00,497
11/9/2023 12:00,533
11/10/2023 12:00,596
11/11/2023 12:00,596
11/12/2023 12:00,596
11/13/2023 12:00,595
11/14/2023 12:00,596
11/15/2023 12:00,595
11/16/2023 12:00,596
11/17/2023 12:00,595
11/18/2023 12:00,596
11/19/2023 12:00,596
11/20/2023 12:00,596
11/21/2023 12:00,597
11/22/2023 12:00,596
11/23/2023 12:00,591
11/24/2023 12:00,588
11/25/2023 12:00,585
11/26/2023 12:00,584
11/27/2023 12:00,671
11/28/2023 12:00,864
11/29/2023 12:00,862
11/30/2023 12:00,860
12/1/2023 12:00,859
12/2/2023 12:00,857
12/3/2023 12:00,857
12/4/2023 12:00,856
12/5/2023 12:00,856
12/6/2023 12:00,854
12/7/2023 12:00,854
12/8/2023 12:00,854
12/9/2023 12:00,854
12/10/2023 12:00,853
12/11/2023 12:00,853
12/12/2023 12:00,851
12/13/2023 12:00,849
12/14/2023 12:00,848
12/15/2023 12:00,849
12/16/2023 12:00,852
12/17/2023 12:00,852
12/18/2023 12:00,857
12/19/2023 12:00,851
12/20/2023 12:00,849
12/21/2023 12:00,850
12/22/2023 12:00,850
12/23/2023 12:00,851
12/24/2023 12:00,852
12/25/2023 12:00,861
12/26/2023 12:00,868
12/27/2023 12:00,875
12/28/2023 12:00,879
12/29/2023 12:00,963
12/30/2023 12:00,1170
12/31/2023 12:00,1170
1/1/2024 12:00,1160
1/2/2024 12:00,1160
1/3/2024 12:00,1150
1/4/2024 12:00,1150
1/5/2024 12:00,1140
1/6/2024 12:00,1140
1/7/2024 12:00,1140
1/8/2024 12:00,1130
1/9/2024 12:00,1130
1/10/2024 12:00,1130
1/11/2024 12:00,1130
1/12/2024 12:00,1120
1/13/2024 12:00,1120
1/14/2024 12:00,1120
1/15/2024 12:00,1110
1/16/2024 12:00,1110
1/17/2024 12:00,1110
1/18/2024 12:00,1110
1/19/2024 12:00,1110
1/20/2024 12:00,1110
1/21/2024 12:00,1110
1/22/2024 12:00,1110
1/23/2024 12:00,1090
1/24/2024 12:00,1100
1/25/2024 12:00,1100
1/26/2024 12:00,1100
1/27/2024 12:00,1100
1/28/2024 12:00,1100
1/29/2024 12:00,1110
1/30/2024 12:00,1150
1/31/2024 12:00,1330
2/1/2024 12:00,1340
2/2/2024 12:00,1340
2/3/2024 12:00,1350
2/4/2024 12:00,1350
2/5/2024 12:00,1440
2/6/2024 12:00,1750
2/7/2024 12:00,1750
2/8/2024 12:00,1750
2/9/2024 12:00,1750
2/10/2024 12:00,1740
2/11/2024 12:00,1720
2/12/2024 12:00,1710
2/13/2024 12:00,1690
2/14/2024 12:00,1670
2/15/2024 12:00,1660
2/16/2024 12:00,1620
2/17/2024 12:00,1540
2/18/2024 12:00,1450
2/19/2024 12:00,1420
2/20/2024 12:00,1260
2/21/2024 12:00,931
2/22/2024 12:00,948
2/23/2024 12:00,951
2/24/2024 12:00,953
2/25/2024 12:00,955
2/26/2024 12:00,957
2/27/2024 12:00,960
2/28/2024 12:00,955
2/29/2024 12:00,952
3/1/2024 12:00,956
3/2/2024 12:00,959
3/3/2024 12:00,963
3/4/2024 12:00,968
3/5/2024 12:00,967
3/6/2024 12:00,968
3/7/2024 12:00,970
3/8/2024 12:00,909
3/9/2024 12:00,776
3/10/2024 12:00,779
3/11/2024 12:00,781
3/12/2024 12:00,784
3/13/2024 12:00,785
3/14/2024 12:00,704
3/15/2024 12:00,586
3/16/2024 12:00,588
3/17/2024 12:00,588
3/18/2024 12:00,541
3/19/2024 12:00,465
3/20/2024 12:00,465
3/22/2024 12:00,466
3/23/2024 12:00,466
3/24/2024 12:00,466
3/25/2024 12:00,467
3/26/2024 12:00,467
3/27/2024 12:00,466
3/28/2024 12:00,466
3/29/2024 12:00,466
3/30/2024 12:00,466
3/31/2024 12:00,467
4/1/2024 12:00,468
4/2/2024 12:00,468
4/3/2024 12:00,456
4/4/2024 12:00,384
4/5/2024 12:00,385
4/6/2024 12:00,385
4/7/2024 12:00,385
4/8/2024 12:00,386
4/9/2024 12:00,388
4/10/2024 12:00,389
4/11/2024 12:00,390
4/12/2024 12:00,390
4/13/2024 12:00,391
4/14/2024 12:00,392
4/15/2024 12:00,392
4/16/2024 12:00,392
4/17/2024 12:00,394
4/18/2024 12:00,356
4/19/2024 12:00,309
4/20/2024 12:00,309
4/21/2024 12:00,310
4/22/2024 12:00,311
4/23/2024 12:00,312
4/24/2024 12:00,313
4/25/2024 12:00,313
4/26/2024 12:00,313
4/27/2024 12:00,315
4/28/2024 12:00,316
4/29/2024 12:00,318
4/30/2024 12:00,321
5/1/2024 12:00,343
5/2/2024 12:00,390
5/3/2024 12:00,481
5/4/2024 12:00,565
